{"data":{"norad_id":68399,"intl_designator":"2026-063V","name":"STARLINK-37187","alt_names":[],"object_type":"PAYLOAD","status":"ACTIVE","operator":null,"country":"US","launch_date":"2026-03-26","launch_site_code":"AFWTR","launch_vehicle":null,"mission":null,"orbit_class":"UNKNOWN","rcs_meters":null,"size_class":null,"mass_kg":null,"dimensions":null,"purposes":["comms"],"wikipedia_slug":null,"has_3d_model":false,"image_url":null,"decayed_at":null,"tle_current":{"epoch":"2026-05-25T02:54:09.665280Z","epoch_age_seconds":58530,"freshness":"FRESH","line1":"1 68399U 26063V   26145.12094520  .00013298  00000+0  41333-3 0  9992","line2":"2 68399  97.2848 287.7604 0002014  69.5458 290.6001 15.33457036  9614","mean_motion":15.33457036,"eccentricity":0.0002014,"inclination_deg":97.2848,"raan_deg":287.7604,"arg_perigee_deg":69.5458,"mean_anomaly_deg":290.6001,"bstar":0.00041333,"rev_number":961,"period_min":93.90546759342,"perigee_km":464.12905406949,"apogee_km":466.88567401933,"semimajor_km":6843.6443640444,"source":"CELESTRAK","updated_at":"2026-05-25T13:38:21.932479Z"}}}